Terminal Aerodrome Forecast
Issued by NWS Columbia, SC

Home | Current Version | Previous Version | Text Only | Print | Product List | Glossary On
Versions: 1 2 3 4 5 6 7 8 9 10 11 12 13 14 15 16 17 18 19 20 21 22 23 24 25 26 27 28 29 30 31 32 33 34 35 36 37 38 39 40 41 42 43 44 45 46 47 48 49 50
162
FTAK31 PAJN 240536
TAFAGS
TAF
PAGS 240536Z 2406/2506 33003KT P6SM FEW020
     FM241200 VRB03KT 6SM BR FEW010 FEW020
     FM241800 34006KT P6SM SCT070
     FM250000 14006KT P6SM SCT020 BKN040
     FM250300 12006KT 3SM BR FEW010 BKN025 OVC040
      AMD LTD TO CLD VIS AND WIND=

USA.gov is the U.S. government's official web portal to all federal, state and local government web resources and services.